Time,TemperatureF,DewpointF,PressureIn,WindDirection,WindDirectionDegrees,WindSpeedMPH,WindSpeedGustMPH,Humidity,HourlyPrecipIn,Conditions,Clouds,dailyrainin,SoftwareType,DateUTC
2014-12-18 00:03:00,25.8,23.3,30.45,ENE,61,0.0,0.0,90,0.00,,,0.00,WeatherCatV1.23B14,2014-12-18 07:03:00,
2014-12-18 00:08:00,25.7,23.2,30.45,ENE,61,0.0,0.0,90,0.00,,,0.00,WeatherCatV1.23B14,2014-12-18 07:08:00,
2014-12-18 00:13:00,25.7,23.2,30.45,ENE,61,0.0,0.0,90,0.00,,,0.00,WeatherCatV1.23B14,2014-12-18 07:13:00,
2014-12-18 00:18:00,25.6,23.1,30.45,ENE,61,0.0,0.0,90,0.00,,,0.00,WeatherCatV1.23B14,2014-12-18 07:18:00,
2014-12-18 00:23:00,25.6,22.8,30.45,NE,49,0.0,0.0,89,0.00,,,0.00,WeatherCatV1.23B14,2014-12-18 07:23:00,
2014-12-18 00:28:00,25.6,23.1,30.45,NE,49,0.0,0.0,90,0.00,,,0.00,WeatherCatV1.23B14,2014-12-18 07:28:00,
2014-12-18 00:33:00,25.6,23.1,30.45,NE,49,0.0,0.0,90,0.00,,,0.00,WeatherCatV1.23B14,2014-12-18 07:33:00,
2014-12-18 00:38:00,25.7,23.4,30.45,NE,49,0.0,0.0,91,0.00,,,0.00,WeatherCatV1.23B14,2014-12-18 07:38:00,
2014-12-18 00:43:00,25.8,23.5,30.45,NE,49,0.0,0.0,91,0.00,,,0.00,WeatherCatV1.23B14,2014-12-18 07:43:00,
2014-12-18 00:48:00,25.8,23.5,30.45,NE,49,0.0,0.0,91,0.00,,,0.00,WeatherCatV1.23B14,2014-12-18 07:48:00,
2014-12-18 00:53:00,25.8,23.5,30.44,NE,49,0.0,0.0,91,0.00,,,0.00,WeatherCatV1.23B14,2014-12-18 07:53:00,
2014-12-18 00:58:00,25.8,23.3,30.45,NE,49,0.0,0.0,90,0.00,,,0.00,WeatherCatV1.23B14,2014-12-18 07:58:00,
2014-12-18 01:03:00,25.8,23.3,30.45,NE,49,0.0,0.0,90,0.00,,,0.00,WeatherCatV1.23B14,2014-12-18 08:03:00,
2014-12-18 01:08:00,25.8,23.3,30.44,NE,49,0.0,0.0,90,0.00,,,0.00,WeatherCatV1.23B14,2014-12-18 08:08:00,
2014-12-18 01:13:00,25.7,23.2,30.45,NE,49,0.0,0.0,90,0.00,,,0.00,WeatherCatV1.23B14,2014-12-18 08:13:00,
2014-12-18 01:18:00,25.7,23.2,30.44,NE,49,0.0,0.0,90,0.00,,,0.00,WeatherCatV1.23B14,2014-12-18 08:18:00,
2014-12-18 01:23:00,25.6,23.1,30.45,NE,49,0.0,0.0,90,0.00,,,0.00,WeatherCatV1.23B14,2014-12-18 08:23:00,
2014-12-18 01:28:00,25.6,23.1,30.45,NE,49,0.0,0.0,90,0.00,,,0.00,WeatherCatV1.23B14,2014-12-18 08:28:00,
2014-12-18 01:33:00,25.6,23.1,30.45,NE,49,0.0,0.0,90,0.00,,,0.00,WeatherCatV1.23B14,2014-12-18 08:33:00,
2014-12-18 01:38:00,25.6,23.1,30.45,NE,49,0.0,0.0,90,0.00,,,0.00,WeatherCatV1.23B14,2014-12-18 08:38:00,
2014-12-18 01:43:00,25.6,23.1,30.45,NE,49,0.0,0.0,90,0.00,,,0.00,WeatherCatV1.23B14,2014-12-18 08:43:00,
2014-12-18 01:48:00,25.6,23.4,30.45,NNE,18,1.0,3.0,91,0.00,,,0.00,WeatherCatV1.23B14,2014-12-18 08:48:00,
2014-12-18 01:53:00,25.7,23.4,30.45,NNE,18,0.0,0.0,91,0.00,,,0.00,WeatherCatV1.23B14,2014-12-18 08:53:00,
2014-12-18 01:58:00,25.7,23.4,30.45,NNE,18,0.0,0.0,91,0.00,,,0.00,WeatherCatV1.23B14,2014-12-18 08:58:00,
2014-12-18 02:03:00,25.8,23.8,30.45,NNE,18,0.0,0.0,92,0.00,,,0.00,WeatherCatV1.23B14,2014-12-18 09:03:00,
2014-12-18 02:08:00,25.8,23.5,30.45,NNE,18,0.0,0.0,91,0.00,,,0.00,WeatherCatV1.23B14,2014-12-18 09:08:00,
2014-12-18 02:13:00,25.8,23.8,30.45,NNE,18,0.0,0.0,92,0.00,,,0.00,WeatherCatV1.23B14,2014-12-18 09:13:00,
2014-12-18 02:18:00,25.9,23.9,30.45,NNE,18,0.0,0.0,92,0.00,,,0.00,WeatherCatV1.23B14,2014-12-18 09:18:00,
2014-12-18 02:23:00,25.8,23.8,30.46,NNE,18,0.0,0.0,92,0.00,,,0.00,WeatherCatV1.23B14,2014-12-18 09:23:00,
2014-12-18 02:28:00,25.8,23.8,30.46,NNE,18,0.0,0.0,92,0.00,,,0.00,WeatherCatV1.23B14,2014-12-18 09:28:00,
2014-12-18 02:33:00,25.9,23.9,30.46,NNE,18,0.0,0.0,92,0.00,,,0.00,WeatherCatV1.23B14,2014-12-18 09:33:00,
2014-12-18 02:38:00,25.9,23.9,30.46,NNE,18,0.0,0.0,92,0.00,,,0.00,WeatherCatV1.23B14,2014-12-18 09:38:00,
2014-12-18 02:43:00,25.9,23.9,30.46,NNE,18,0.0,0.0,92,0.00,,,0.00,WeatherCatV1.23B14,2014-12-18 09:43:00,
2014-12-18 02:48:00,25.9,23.6,30.46,NNE,18,0.0,0.0,91,0.00,,,0.00,WeatherCatV1.23B14,2014-12-18 09:48:00,
2014-12-18 02:53:00,25.8,23.5,30.46,NNE,18,0.0,0.0,91,0.00,,,0.00,WeatherCatV1.23B14,2014-12-18 09:53:00,
2014-12-18 02:58:00,25.8,23.5,30.46,NNE,18,0.0,0.0,91,0.00,,,0.00,WeatherCatV1.23B14,2014-12-18 09:58:00,
2014-12-18 03:03:00,25.9,23.6,30.45,North,11,0.0,3.0,91,0.00,,,0.00,WeatherCatV1.23B14,2014-12-18 10:03:00,
2014-12-18 03:08:00,25.9,23.6,30.45,North,9,0.0,0.0,91,0.00,,,0.00,WeatherCatV1.23B14,2014-12-18 10:08:00,
2014-12-18 03:13:00,25.9,23.6,30.46,North,5,0.0,1.0,91,0.00,,,0.00,WeatherCatV1.23B14,2014-12-18 10:13:00,
2014-12-18 03:18:00,25.8,23.8,30.46,North,5,3.0,3.0,92,0.00,,,0.00,WeatherCatV1.23B14,2014-12-18 10:18:00,
2014-12-18 03:23:00,25.8,23.8,30.46,North,355,0.0,2.0,92,0.00,,,0.00,WeatherCatV1.23B14,2014-12-18 10:23:00,
2014-12-18 03:28:00,25.8,23.5,30.46,North,355,0.0,1.0,91,0.00,,,0.00,WeatherCatV1.23B14,2014-12-18 10:28:00,
2014-12-18 03:33:00,25.8,23.8,30.45,NNW,348,0.0,3.0,92,0.00,,,0.00,WeatherCatV1.23B14,2014-12-18 10:33:00,
2014-12-18 03:38:00,25.8,23.8,30.46,NNW,336,2.0,4.0,92,0.00,,,0.00,WeatherCatV1.23B14,2014-12-18 10:38:00,
2014-12-18 03:43:00,25.8,23.8,30.45,NW,324,0.0,4.0,92,0.00,,,0.00,WeatherCatV1.23B14,2014-12-18 10:43:00,
2014-12-18 03:48:00,25.8,23.8,30.45,NW,323,0.0,0.0,92,0.00,,,0.00,WeatherCatV1.23B14,2014-12-18 10:48:00,
2014-12-18 03:53:00,25.8,23.8,30.45,NW,323,1.0,1.0,92,0.00,,,0.00,WeatherCatV1.23B14,2014-12-18 10:53:00,
2014-12-18 03:58:00,25.8,23.8,30.45,NW,321,0.0,3.0,92,0.00,,,0.00,WeatherCatV1.23B14,2014-12-18 10:58:00,
2014-12-18 04:03:00,25.7,23.7,30.45,NW,321,0.0,0.0,92,0.00,,,0.00,WeatherCatV1.23B14,2014-12-18 11:03:00,
2014-12-18 04:08:00,25.7,23.7,30.45,NW,321,0.0,0.0,92,0.00,,,0.00,WeatherCatV1.23B14,2014-12-18 11:08:00,
2014-12-18 04:13:00,25.7,23.7,30.45,NW,321,0.0,0.0,92,0.00,,,0.00,WeatherCatV1.23B14,2014-12-18 11:13:00,
2014-12-18 04:18:00,25.7,23.7,30.45,NW,321,0.0,0.0,92,0.00,,,0.00,WeatherCatV1.23B14,2014-12-18 11:18:00,
2014-12-18 04:23:00,25.6,23.6,30.45,NW,321,0.0,0.0,92,0.00,,,0.00,WeatherCatV1.23B14,2014-12-18 11:23:00,
2014-12-18 04:28:00,25.6,23.6,30.45,NW,321,1.0,1.0,92,0.00,,,0.00,WeatherCatV1.23B14,2014-12-18 11:28:00,
2014-12-18 04:33:00,25.6,23.6,30.45,NW,321,0.0,0.0,92,0.00,,,0.00,WeatherCatV1.23B14,2014-12-18 11:33:00,
2014-12-18 04:38:00,25.6,23.6,30.45,NW,321,2.0,2.0,92,0.00,,,0.00,WeatherCatV1.23B14,2014-12-18 11:38:00,
2014-12-18 04:43:00,25.6,23.6,30.45,NW,321,0.0,1.0,92,0.00,,,0.00,WeatherCatV1.23B14,2014-12-18 11:43:00,
2014-12-18 04:48:00,25.6,23.6,30.45,NW,321,0.0,0.0,92,0.00,,,0.00,WeatherCatV1.23B14,2014-12-18 11:48:00,
2014-12-18 04:53:00,25.6,23.6,30.45,NW,321,0.0,0.0,92,0.00,,,0.00,WeatherCatV1.23B14,2014-12-18 11:53:00,
2014-12-18 04:58:00,25.5,23.5,30.45,NW,321,0.0,0.0,92,0.00,,,0.00,WeatherCatV1.23B14,2014-12-18 11:58:00,
2014-12-18 05:03:00,25.5,23.5,30.45,NW,321,0.0,0.0,92,0.00,,,0.00,WeatherCatV1.23B14,2014-12-18 12:03:00,
2014-12-18 05:08:00,25.4,23.4,30.45,NW,321,0.0,0.0,92,0.00,,,0.00,WeatherCatV1.23B14,2014-12-18 12:08:00,
2014-12-18 05:13:00,25.4,23.4,30.45,NW,321,0.0,0.0,92,0.00,,,0.00,WeatherCatV1.23B14,2014-12-18 12:13:00,
2014-12-18 05:18:00,25.3,23.3,30.45,NW,321,0.0,0.0,92,0.00,,,0.00,WeatherCatV1.23B14,2014-12-18 12:18:00,
2014-12-18 05:23:00,25.3,23.3,30.45,NW,321,0.0,0.0,92,0.00,,,0.00,WeatherCatV1.23B14,2014-12-18 12:23:00,
2014-12-18 05:28:00,25.3,23.3,30.45,NW,321,0.0,0.0,92,0.00,,,0.00,WeatherCatV1.23B14,2014-12-18 12:28:00,
2014-12-18 05:33:00,25.2,23.2,30.45,NW,321,0.0,0.0,92,0.00,,,0.00,WeatherCatV1.23B14,2014-12-18 12:33:00,
2014-12-18 05:38:00,25.3,23.3,30.46,NW,321,0.0,1.0,92,0.00,,,0.00,WeatherCatV1.23B14,2014-12-18 12:38:00,
2014-12-18 05:43:00,25.3,23.3,30.46,NW,321,0.0,1.0,92,0.00,,,0.00,WeatherCatV1.23B14,2014-12-18 12:43:00,
2014-12-18 05:48:00,25.3,23.3,30.46,NW,321,0.0,0.0,92,0.00,,,0.00,WeatherCatV1.23B14,2014-12-18 12:48:00,
2014-12-18 05:53:00,25.3,23.3,30.46,NW,321,0.0,0.0,92,0.00,,,0.00,WeatherCatV1.23B14,2014-12-18 12:53:00,
2014-12-18 05:58:00,25.3,23.3,30.46,NW,321,0.0,0.0,92,0.00,,,0.00,WeatherCatV1.23B14,2014-12-18 12:58:00,
2014-12-18 06:03:00,25.3,23.3,30.46,NW,321,0.0,0.0,92,0.00,,,0.00,WeatherCatV1.23B14,2014-12-18 13:03:00,
2014-12-18 06:08:00,25.3,23.3,30.46,NW,321,0.0,0.0,92,0.00,,,0.00,WeatherCatV1.23B14,2014-12-18 13:08:00,
2014-12-18 06:13:00,25.2,23.2,30.46,NW,321,0.0,0.0,92,0.00,,,0.00,WeatherCatV1.23B14,2014-12-18 13:13:00,
2014-12-18 06:18:00,25.2,23.2,30.47,NW,321,0.0,0.0,92,0.00,,,0.00,WeatherCatV1.23B14,2014-12-18 13:18:00,
2014-12-18 06:23:00,25.2,23.2,30.47,NW,321,0.0,0.0,92,0.00,,,0.00,WeatherCatV1.23B14,2014-12-18 13:23:00,
2014-12-18 06:28:00,25.2,23.2,30.47,NW,321,0.0,0.0,92,0.00,,,0.00,WeatherCatV1.23B14,2014-12-18 13:28:00,
2014-12-18 06:33:00,25.2,23.5,30.47,NW,321,0.0,0.0,93,0.00,,,0.00,WeatherCatV1.23B14,2014-12-18 13:33:00,
2014-12-18 06:38:00,25.2,23.5,30.47,NW,321,0.0,0.0,93,0.00,,,0.00,WeatherCatV1.23B14,2014-12-18 13:38:00,
2014-12-18 06:43:00,25.2,23.5,30.47,NW,321,0.0,0.0,93,0.00,,,0.00,WeatherCatV1.23B14,2014-12-18 13:43:00,
2014-12-18 06:48:00,25.3,23.6,30.48,NW,321,0.0,0.0,93,0.00,,,0.00,WeatherCatV1.23B14,2014-12-18 13:48:00,
2014-12-18 06:53:00,25.3,23.6,30.48,NW,321,0.0,0.0,93,0.00,,,0.00,WeatherCatV1.23B14,2014-12-18 13:53:00,
2014-12-18 06:58:00,25.3,23.6,30.48,NW,321,0.0,0.0,93,0.00,,,0.00,WeatherCatV1.23B14,2014-12-18 13:58:00,
2014-12-18 07:03:00,25.4,23.7,30.48,NW,321,0.0,0.0,93,0.00,,,0.00,WeatherCatV1.23B14,2014-12-18 14:03:00,
2014-12-18 07:08:00,25.4,23.7,30.48,NW,321,0.0,0.0,93,0.00,,,0.00,WeatherCatV1.23B14,2014-12-18 14:08:00,
2014-12-18 07:13:00,25.5,23.8,30.48,NW,321,0.0,0.0,93,0.00,,,0.00,WeatherCatV1.23B14,2014-12-18 14:13:00,
2014-12-18 07:18:00,25.5,23.8,30.48,NW,321,0.0,0.0,93,0.00,,,0.00,WeatherCatV1.23B14,2014-12-18 14:18:00,
2014-12-18 07:23:00,25.5,23.8,30.48,NW,321,0.0,0.0,93,0.00,,,0.00,WeatherCatV1.23B14,2014-12-18 14:23:00,
2014-12-18 07:28:00,25.6,23.9,30.48,NW,321,0.0,0.0,93,0.00,,,0.00,WeatherCatV1.23B14,2014-12-18 14:28:00,
2014-12-18 07:33:00,25.6,23.9,30.48,NW,321,0.0,0.0,93,0.00,,,0.00,WeatherCatV1.23B14,2014-12-18 14:33:00,
2014-12-18 07:38:00,25.7,24.0,30.48,NW,321,0.0,0.0,93,0.00,,,0.00,WeatherCatV1.23B14,2014-12-18 14:38:00,
2014-12-18 07:43:00,25.7,24.0,30.48,NW,321,0.0,0.0,93,0.00,,,0.00,WeatherCatV1.23B14,2014-12-18 14:43:00,
2014-12-18 07:48:00,25.8,24.1,30.48,NW,321,0.0,0.0,93,0.00,,,0.00,WeatherCatV1.23B14,2014-12-18 14:48:00,
2014-12-18 07:53:00,25.8,24.1,30.48,NW,321,0.0,0.0,93,0.00,,,0.00,WeatherCatV1.23B14,2014-12-18 14:53:00,
2014-12-18 07:58:00,26.0,24.3,30.48,NW,321,0.0,0.0,93,0.00,,,0.00,WeatherCatV1.23B14,2014-12-18 14:58:00,
2014-12-18 08:03:00,26.1,24.4,30.48,NW,321,0.0,0.0,93,0.00,,,0.00,WeatherCatV1.23B14,2014-12-18 15:03:00,
2014-12-18 08:08:00,26.2,24.5,30.48,NW,321,0.0,0.0,93,0.00,,,0.00,WeatherCatV1.23B14,2014-12-18 15:08:00,
2014-12-18 08:13:00,26.3,24.6,30.48,NW,321,0.0,0.0,93,0.00,,,0.00,WeatherCatV1.23B14,2014-12-18 15:13:00,
2014-12-18 08:18:00,26.4,24.7,30.48,NW,321,0.0,0.0,93,0.00,,,0.00,WeatherCatV1.23B14,2014-12-18 15:18:00,
2014-12-18 08:23:00,26.6,24.9,30.48,NW,321,0.0,0.0,93,0.00,,,0.00,WeatherCatV1.23B14,2014-12-18 15:23:00,
2014-12-18 08:28:00,26.9,25.4,30.48,NW,321,0.0,0.0,94,0.00,,,0.00,WeatherCatV1.23B14,2014-12-18 15:28:00,
2014-12-18 08:33:00,27.1,25.4,30.49,NW,321,0.0,0.0,93,0.00,,,0.00,WeatherCatV1.23B14,2014-12-18 15:33:00,
2014-12-18 08:38:00,27.3,25.5,30.48,NW,321,0.0,0.0,93,0.00,,,0.00,WeatherCatV1.23B14,2014-12-18 15:38:00,
2014-12-18 08:43:00,27.5,25.8,30.48,NW,321,0.0,0.0,93,0.00,,,0.00,WeatherCatV1.23B14,2014-12-18 15:43:00,
2014-12-18 08:48:00,27.8,26.0,30.48,NW,321,0.0,0.0,93,0.00,,,0.00,WeatherCatV1.23B14,2014-12-18 15:48:00,
2014-12-18 08:53:00,28.0,26.0,30.49,NW,321,0.0,0.0,92,0.00,,,0.00,WeatherCatV1.23B14,2014-12-18 15:53:00,
2014-12-18 08:58:00,28.3,26.3,30.49,NW,321,0.0,0.0,92,0.00,,,0.00,WeatherCatV1.23B14,2014-12-18 15:58:00,
2014-12-18 09:03:00,28.5,26.2,30.49,NW,321,0.0,0.0,91,0.00,,,0.00,WeatherCatV1.23B14,2014-12-18 16:03:00,
2014-12-18 09:08:00,28.9,26.6,30.49,NW,321,0.0,0.0,91,0.00,,,0.00,WeatherCatV1.23B14,2014-12-18 16:08:00,
2014-12-18 09:13:00,29.1,26.5,30.49,NW,321,0.0,0.0,90,0.00,,,0.00,WeatherCatV1.23B14,2014-12-18 16:13:00,
2014-12-18 09:18:00,29.3,26.5,30.49,NW,321,0.0,0.0,89,0.00,,,0.00,WeatherCatV1.23B14,2014-12-18 16:18:00,
2014-12-18 09:23:00,29.5,26.7,30.49,NW,321,0.0,0.0,89,0.00,,,0.00,WeatherCatV1.23B14,2014-12-18 16:23:00,
2014-12-18 09:28:00,30.0,27.2,30.49,NW,321,0.0,0.0,89,0.00,,,0.00,WeatherCatV1.23B14,2014-12-18 16:28:00,
2014-12-18 09:33:00,30.3,27.2,30.49,NW,321,0.0,0.0,88,0.00,,,0.00,WeatherCatV1.23B14,2014-12-18 16:33:00,
2014-12-18 09:38:00,30.6,26.9,30.50,NW,321,0.0,0.0,86,0.00,,,0.00,WeatherCatV1.23B14,2014-12-18 16:38:00,
2014-12-18 09:43:00,30.8,27.1,30.50,NW,321,0.0,0.0,86,0.00,,,0.00,WeatherCatV1.23B14,2014-12-18 16:43:00,
2014-12-18 09:48:00,30.8,26.8,30.50,NW,321,0.0,0.0,85,0.00,,,0.00,WeatherCatV1.23B14,2014-12-18 16:48:00,
2014-12-18 09:53:00,31.0,26.7,30.50,NW,321,0.0,1.0,84,0.00,,,0.00,WeatherCatV1.23B14,2014-12-18 16:53:00,
2014-12-18 09:58:00,31.4,27.1,30.50,NW,321,0.0,1.0,84,0.00,,,0.00,WeatherCatV1.23B14,2014-12-18 16:58:00,
2014-12-18 10:03:00,31.5,26.9,30.50,NW,321,0.0,0.0,83,0.00,,,0.00,WeatherCatV1.23B14,2014-12-18 17:03:00,
2014-12-18 10:08:00,32.0,28.0,30.50,NW,321,0.0,0.0,85,0.00,,,0.00,WeatherCatV1.23B14,2014-12-18 17:08:00,
2014-12-18 10:13:00,32.3,27.4,30.50,NW,321,0.0,1.0,82,0.00,,,0.00,WeatherCatV1.23B14,2014-12-18 17:13:00,
2014-12-18 10:18:00,32.3,27.4,30.50,NW,321,0.0,0.0,82,0.00,,,0.00,WeatherCatV1.23B14,2014-12-18 17:18:00,
2014-12-18 10:23:00,32.3,27.7,30.50,NW,321,0.0,0.0,83,0.00,,,0.00,WeatherCatV1.23B14,2014-12-18 17:23:00,
2014-12-18 10:28:00,32.4,27.8,30.49,NW,321,0.0,0.0,83,0.00,,,0.00,WeatherCatV1.23B14,2014-12-18 17:28:00,
2014-12-18 10:33:00,32.7,27.8,30.49,NW,321,0.0,0.0,82,0.00,,,0.00,WeatherCatV1.23B14,2014-12-18 17:33:00,
2014-12-18 10:38:00,33.1,28.2,30.49,NW,321,0.0,2.0,82,0.00,,,0.00,WeatherCatV1.23B14,2014-12-18 17:38:00,
2014-12-18 10:43:00,33.5,28.6,30.49,NW,321,0.0,3.0,82,0.00,,,0.00,WeatherCatV1.23B14,2014-12-18 17:43:00,
2014-12-18 10:48:00,33.8,28.3,30.49,NW,321,0.0,0.0,80,0.00,,,0.00,WeatherCatV1.23B14,2014-12-18 17:48:00,
2014-12-18 10:53:00,34.1,28.9,30.49,NW,321,2.0,2.0,81,0.00,,,0.00,WeatherCatV1.23B14,2014-12-18 17:53:00,
2014-12-18 10:58:00,34.4,28.9,30.48,NW,304,3.0,5.0,80,0.00,,,0.00,WeatherCatV1.23B14,2014-12-18 17:58:00,
2014-12-18 11:03:00,34.7,28.6,30.48,WNW,302,0.0,2.0,78,0.00,,,0.00,WeatherCatV1.23B14,2014-12-18 18:03:00,
2014-12-18 11:08:00,35.1,29.3,30.47,WNW,302,1.0,3.0,79,0.00,,,0.00,WeatherCatV1.23B14,2014-12-18 18:08:00,
2014-12-18 11:13:00,35.3,28.5,30.47,WNW,302,0.0,2.0,76,0.00,,,0.01,WeatherCatV1.23B14,2014-12-18 18:13:00,
2014-12-18 11:18:00,35.4,28.9,30.47,WNW,302,3.0,3.0,77,0.00,,,0.01,WeatherCatV1.23B14,2014-12-18 18:18:00,
2014-12-18 11:23:00,35.7,29.2,30.47,WNW,300,4.0,4.0,77,0.00,,,0.01,WeatherCatV1.23B14,2014-12-18 18:23:00,
2014-12-18 11:28:00,35.9,29.1,30.47,WNW,300,0.0,2.0,76,0.00,,,0.01,WeatherCatV1.23B14,2014-12-18 18:28:00,
2014-12-18 11:33:00,36.0,29.5,30.46,WNW,300,2.0,3.0,77,0.00,,,0.01,WeatherCatV1.23B14,2014-12-18 18:33:00,
2014-12-18 11:38:00,36.1,29.6,30.46,WNW,300,3.0,4.0,77,0.00,,,0.01,WeatherCatV1.23B14,2014-12-18 18:38:00,
2014-12-18 11:43:00,36.4,29.9,30.45,WNW,300,3.0,4.0,77,0.00,,,0.01,WeatherCatV1.23B14,2014-12-18 18:43:00,
2014-12-18 11:48:00,36.9,29.7,30.45,WNW,300,1.0,3.0,75,0.00,,,0.01,WeatherCatV1.23B14,2014-12-18 18:48:00,
2014-12-18 11:53:00,37.3,29.8,30.45,WNW,300,0.0,0.0,74,0.00,,,0.01,WeatherCatV1.23B14,2014-12-18 18:53:00,
2014-12-18 11:58:00,37.4,29.2,30.44,WNW,300,2.0,2.0,72,0.00,,,0.02,WeatherCatV1.23B14,2014-12-18 18:58:00,
2014-12-18 12:03:00,36.9,29.1,30.44,WNW,299,0.0,3.0,73,0.00,,,0.02,WeatherCatV1.23B14,2014-12-18 19:03:00,
2014-12-18 12:08:00,36.4,29.2,30.43,WNW,299,0.0,1.0,75,0.00,,,0.02,WeatherCatV1.23B14,2014-12-18 19:08:00,
2014-12-18 12:13:00,36.2,29.7,30.43,WNW,298,0.0,2.0,77,0.00,,,0.02,WeatherCatV1.23B14,2014-12-18 19:13:00,
2014-12-18 12:18:00,35.9,29.4,30.43,WNW,296,0.0,0.0,77,0.00,,,0.02,WeatherCatV1.23B14,2014-12-18 19:18:00,
2014-12-18 12:23:00,36.2,29.7,30.42,WNW,296,0.0,1.0,77,0.00,,,0.02,WeatherCatV1.23B14,2014-12-18 19:23:00,
2014-12-18 12:28:00,36.5,29.0,30.42,WNW,296,0.0,0.0,74,0.00,,,0.02,WeatherCatV1.23B14,2014-12-18 19:28:00,
2014-12-18 12:33:00,36.5,29.7,30.42,WNW,294,0.0,1.0,76,0.00,,,0.02,WeatherCatV1.23B14,2014-12-18 19:33:00,
2014-12-18 12:38:00,36.6,30.1,30.42,WNW,294,0.0,0.0,77,0.00,,,0.02,WeatherCatV1.23B14,2014-12-18 19:38:00,
2014-12-18 12:43:00,36.7,29.2,30.41,WNW,294,0.0,0.0,74,0.00,,,0.02,WeatherCatV1.23B14,2014-12-18 19:43:00,
2014-12-18 12:48:00,37.0,30.1,30.41,WNW,294,0.0,0.0,76,0.00,,,0.02,WeatherCatV1.23B14,2014-12-18 19:48:00,
2014-12-18 12:53:00,37.1,29.3,30.41,WNW,294,0.0,0.0,73,0.00,,,0.02,WeatherCatV1.23B14,2014-12-18 19:53:00,
2014-12-18 12:58:00,37.0,29.8,30.40,WNW,294,1.0,2.0,75,0.00,,,0.02,WeatherCatV1.23B14,2014-12-18 19:58:00,
2014-12-18 13:03:00,36.9,29.4,30.40,WNW,294,0.0,3.0,74,0.00,,,0.02,WeatherCatV1.23B14,2014-12-18 20:03:00,
2014-12-18 13:08:00,36.6,29.1,30.40,WNW,294,0.0,1.0,74,0.00,,,0.02,WeatherCatV1.23B14,2014-12-18 20:08:00,
2014-12-18 13:13:00,36.5,29.0,30.40,WNW,294,0.0,2.0,74,0.00,,,0.02,WeatherCatV1.23B14,2014-12-18 20:13:00,
2014-12-18 13:18:00,36.9,29.4,30.39,WNW,294,0.0,1.0,74,0.00,,,0.02,WeatherCatV1.23B14,2014-12-18 20:18:00,
2014-12-18 13:23:00,37.2,30.0,30.39,WNW,290,1.0,2.0,75,0.00,,,0.02,WeatherCatV1.23B14,2014-12-18 20:23:00,
2014-12-18 13:28:00,37.3,29.5,30.39,WNW,288,0.0,1.0,73,0.00,,,0.02,WeatherCatV1.23B14,2014-12-18 20:28:00,
2014-12-18 13:33:00,37.6,29.4,30.39,WNW,287,0.0,2.0,72,0.00,,,0.02,WeatherCatV1.23B14,2014-12-18 20:33:00,
2014-12-18 13:38:00,37.6,29.7,30.39,WNW,287,0.0,1.0,73,0.00,,,0.02,WeatherCatV1.23B14,2014-12-18 20:38:00,
2014-12-18 13:43:00,37.6,29.1,30.39,West,279,1.0,3.0,71,0.00,,,0.02,WeatherCatV1.23B14,2014-12-18 20:43:00,
2014-12-18 13:48:00,37.5,29.3,30.39,West,279,0.0,0.0,72,0.00,,,0.02,WeatherCatV1.23B14,2014-12-18 20:48:00,
2014-12-18 13:53:00,37.5,29.3,30.39,West,279,0.0,1.0,72,0.00,,,0.02,WeatherCatV1.23B14,2014-12-18 20:53:00,
2014-12-18 13:58:00,37.5,29.0,30.38,West,279,0.0,1.0,71,0.00,,,0.02,WeatherCatV1.23B14,2014-12-18 20:58:00,
2014-12-18 14:03:00,37.7,29.2,30.38,West,279,0.0,1.0,71,0.00,,,0.02,WeatherCatV1.23B14,2014-12-18 21:03:00,
2014-12-18 14:08:00,38.1,30.9,30.38,NNW,330,3.0,5.0,75,0.00,,,0.02,WeatherCatV1.23B14,2014-12-18 21:08:00,
2014-12-18 14:13:00,38.4,31.2,30.38,NNW,330,0.0,2.0,75,0.00,,,0.02,WeatherCatV1.23B14,2014-12-18 21:13:00,
2014-12-18 14:18:00,38.5,30.6,30.38,NNE,26,4.0,6.0,73,0.00,,,0.02,WeatherCatV1.23B14,2014-12-18 21:18:00,
2014-12-18 14:23:00,38.3,30.4,30.38,NNE,25,4.0,7.0,73,0.00,,,0.02,WeatherCatV1.23B14,2014-12-18 21:23:00,
2014-12-18 14:28:00,37.9,30.0,30.39,NNE,23,5.0,6.0,73,0.00,,,0.02,WeatherCatV1.23B14,2014-12-18 21:28:00,
2014-12-18 14:33:00,37.6,29.7,30.38,NNE,26,2.0,2.0,73,0.00,,,0.02,WeatherCatV1.23B14,2014-12-18 21:33:00,
2014-12-18 14:38:00,37.4,29.9,30.39,NNE,25,3.0,6.0,74,0.00,,,0.02,WeatherCatV1.23B14,2014-12-18 21:38:00,
2014-12-18 14:43:00,37.3,30.1,30.39,NNE,25,1.0,4.0,75,0.00,,,0.02,WeatherCatV1.23B14,2014-12-18 21:43:00,
2014-12-18 14:48:00,37.3,29.8,30.39,North,355,3.0,3.0,74,0.00,,,0.02,WeatherCatV1.23B14,2014-12-18 21:48:00,
2014-12-18 14:53:00,37.3,28.8,30.39,NW,311,1.0,4.0,71,0.00,,,0.02,WeatherCatV1.23B14,2014-12-18 21:53:00,
2014-12-18 14:58:00,37.4,29.2,30.39,WNW,296,2.0,3.0,72,0.00,,,0.02,WeatherCatV1.23B14,2014-12-18 21:58:00,
2014-12-18 15:03:00,37.5,29.3,30.39,WNW,296,2.0,4.0,72,0.00,,,0.02,WeatherCatV1.23B14,2014-12-18 22:03:00,
2014-12-18 15:08:00,37.5,29.3,30.39,West,274,3.0,6.0,72,0.00,,,0.02,WeatherCatV1.23B14,2014-12-18 22:08:00,
2014-12-18 15:13:00,37.4,29.2,30.39,West,268,1.0,5.0,72,0.00,,,0.02,WeatherCatV1.23B14,2014-12-18 22:13:00,
2014-12-18 15:18:00,37.2,29.0,30.39,West,273,1.0,5.0,72,0.00,,,0.02,WeatherCatV1.23B14,2014-12-18 22:18:00,
2014-12-18 15:23:00,36.9,29.1,30.39,West,271,4.0,7.0,73,0.00,,,0.02,WeatherCatV1.23B14,2014-12-18 22:23:00,
2014-12-18 15:28:00,36.6,28.8,30.39,West,268,1.0,6.0,73,0.00,,,0.02,WeatherCatV1.23B14,2014-12-18 22:28:00,
2014-12-18 15:33:00,36.4,28.9,30.39,WNW,286,8.0,8.0,74,0.00,,,0.02,WeatherCatV1.23B14,2014-12-18 22:33:00,
2014-12-18 15:38:00,36.1,29.6,30.39,WNW,285,5.0,7.0,77,0.00,,,0.02,WeatherCatV1.23B14,2014-12-18 22:38:00,
2014-12-18 15:43:00,35.8,29.6,30.39,West,281,3.0,5.0,78,0.00,,,0.02,WeatherCatV1.23B14,2014-12-18 22:43:00,
2014-12-18 15:48:00,35.5,29.6,30.39,West,277,1.0,5.0,79,0.00,,,0.02,WeatherCatV1.23B14,2014-12-18 22:48:00,
2014-12-18 15:53:00,35.3,29.5,30.40,West,277,1.0,4.0,79,0.00,,,0.02,WeatherCatV1.23B14,2014-12-18 22:53:00,
2014-12-18 15:58:00,35.1,29.6,30.40,West,276,0.0,1.0,80,0.00,,,0.02,WeatherCatV1.23B14,2014-12-18 22:58:00,
2014-12-18 16:03:00,34.9,29.7,30.40,West,276,1.0,3.0,81,0.00,,,0.02,WeatherCatV1.23B14,2014-12-18 23:03:00,
2014-12-18 16:08:00,34.8,29.6,30.40,West,275,0.0,4.0,81,0.00,,,0.02,WeatherCatV1.23B14,2014-12-18 23:08:00,
2014-12-18 16:13:00,34.7,29.5,30.40,West,275,1.0,3.0,81,0.00,,,0.02,WeatherCatV1.23B14,2014-12-18 23:13:00,
2014-12-18 16:18:00,34.6,29.1,30.40,West,275,0.0,4.0,80,0.00,,,0.02,WeatherCatV1.23B14,2014-12-18 23:18:00,
2014-12-18 16:23:00,34.5,29.3,30.40,West,275,3.0,3.0,81,0.00,,,0.02,WeatherCatV1.23B14,2014-12-18 23:23:00,
2014-12-18 16:28:00,34.3,29.1,30.41,West,275,2.0,3.0,81,0.00,,,0.02,WeatherCatV1.23B14,2014-12-18 23:28:00,
2014-12-18 16:33:00,34.2,29.0,30.40,West,275,0.0,1.0,81,0.00,,,0.02,WeatherCatV1.23B14,2014-12-18 23:33:00,
2014-12-18 16:38:00,34.1,28.9,30.41,West,275,0.0,0.0,81,0.00,,,0.02,WeatherCatV1.23B14,2014-12-18 23:38:00,
2014-12-18 16:43:00,33.9,29.0,30.41,West,275,0.0,1.0,82,0.00,,,0.02,WeatherCatV1.23B14,2014-12-18 23:43:00,
2014-12-18 16:48:00,33.8,28.9,30.41,West,275,0.0,2.0,82,0.00,,,0.02,WeatherCatV1.23B14,2014-12-18 23:48:00,
2014-12-18 16:53:00,33.6,29.0,30.41,West,275,0.0,1.0,83,0.00,,,0.02,WeatherCatV1.23B14,2014-12-18 23:53:00,
2014-12-18 16:58:00,33.4,28.8,30.41,West,275,0.0,0.0,83,0.00,,,0.02,WeatherCatV1.23B14,2014-12-18 23:58:00,
2014-12-18 17:03:00,33.3,28.7,30.41,West,275,0.0,0.0,83,0.00,,,0.02,WeatherCatV1.23B14,2014-12-19 00:03:00,
2014-12-18 17:08:00,33.1,28.8,30.41,West,275,0.0,0.0,84,0.00,,,0.02,WeatherCatV1.23B14,2014-12-19 00:08:00,
2014-12-18 17:13:00,32.8,28.5,30.42,West,275,0.0,0.0,84,0.00,,,0.02,WeatherCatV1.23B14,2014-12-19 00:13:00,
2014-12-18 17:18:00,32.5,28.2,30.42,West,275,0.0,0.0,84,0.00,,,0.02,WeatherCatV1.23B14,2014-12-19 00:18:00,
2014-12-18 17:23:00,32.3,28.3,30.42,West,275,0.0,0.0,85,0.00,,,0.02,WeatherCatV1.23B14,2014-12-19 00:23:00,
2014-12-18 17:28:00,32.1,28.4,30.42,West,275,0.0,0.0,86,0.00,,,0.02,WeatherCatV1.23B14,2014-12-19 00:28:00,
2014-12-18 17:33:00,32.0,28.6,30.42,West,275,0.0,0.0,87,0.00,,,0.02,WeatherCatV1.23B14,2014-12-19 00:33:00,
2014-12-18 17:38:00,31.8,28.4,30.42,West,275,0.0,0.0,87,0.00,,,0.02,WeatherCatV1.23B14,2014-12-19 00:38:00,
2014-12-18 17:43:00,31.7,28.3,30.42,West,275,0.0,0.0,87,0.00,,,0.02,WeatherCatV1.23B14,2014-12-19 00:43:00,
2014-12-18 17:48:00,31.6,28.2,30.43,West,275,0.0,0.0,87,0.00,,,0.02,WeatherCatV1.23B14,2014-12-19 00:48:00,
2014-12-18 17:53:00,31.6,28.5,30.43,West,275,0.0,0.0,88,0.00,,,0.02,WeatherCatV1.23B14,2014-12-19 00:53:00,
2014-12-18 17:58:00,31.6,28.5,30.43,West,275,0.0,0.0,88,0.00,,,0.02,WeatherCatV1.23B14,2014-12-19 00:58:00,